Hourly Data Report for September 19, 2017

All times are specified in Local Standard Time (LST). Add 1 hour to adjust for Daylight Saving Time where and when it is observed.

OTTAWA INTL A
ONTARIO

45°19'00.000" N
75°40'00.000" W
114.90 m
6106001
71628
YOW

Download Data

Hourly Data (September 2017)
Hourly Data Report for September 19, 2017
Temp Definition
°C
Dew Point Temp Definition
°C
Rel Hum Definition
%
Wind Dir Definition
10's deg

Wind Spd Definition
km/h
Visibility Definition
km
Stn Press Definition
kPa
Hmdx Definition


Wind Chill Definition


Weather Definition


TIME
00:00 Legend Double Dagger 18.0 17.3 95 3 8 24.1 100.44     LegendNANA
01:00 Legend Double Dagger 17.9 17.2 96 5 10 24.1 100.43     Clear
02:00 Legend Double Dagger 17.1 16.6 97 7 4 24.1 100.39     LegendNANA
03:00 Legend Double Dagger 18.0 17.2 95 36 3 24.1 100.40     LegendNANA
04:00 Legend Double Dagger 16.0 15.4 96 36 3 24.1 100.40     Clear
05:00 Legend Double Dagger 15.2 14.5 95 13 7 24.1 100.41     LegendNANA
06:00 Legend Double Dagger 15.7 15.3 98 14 8 16.1 100.47     LegendNANA
07:00 Legend Double Dagger 18.0 17.4 97 15 9 24.1 100.48     Mainly Clear
08:00 Legend Double Dagger 19.7 18.1 90 15 9 24.1 100.51     LegendNANA
09:00 Legend Double Dagger 21.7 17.9 79 21 9 24.1 100.52 28   LegendNANA
10:00 Legend Double Dagger 23.2 18.6 75 20 9 24.1 100.52 30   Mainly Clear
11:00 Legend Double Dagger 24.6 18.4 68 14 4 24.1 100.49 31   LegendNANA
12:00 Legend Double Dagger 25.8 18.6 64 14 10 24.1 100.44 32   LegendNANA
13:00 Legend Double Dagger 27.0 18.8 60 20 8 24.1 100.37 34   Mostly Cloudy
14:00 Legend Double Dagger 27.0 18.2 58 29 4 24.1 100.32 33   LegendNANA
15:00 Legend Double Dagger 27.2 18.7 59 31 4 24.1 100.27 34   LegendNANA
16:00 Legend Double Dagger 26.8 19.1 62 6 8 24.1 100.25 34   Mostly Cloudy
17:00 Legend Double Dagger 25.3 18.7 66 7 8 24.1 100.24 32   LegendNANA
18:00 Legend Double Dagger 24.5 19.1 71 5 7 24.1 100.29 31   LegendNANA
19:00 Legend Double Dagger 23.7 19.9 79 35 18 24.1 100.32 31   Mostly Cloudy
20:00 Legend Double Dagger 22.8 19.3 80 1 16 24.1 100.36 30   LegendNANA
21:00 Legend Double Dagger 22.1 19.2 83 1 17 24.1 100.37 29   LegendNANA
22:00 Legend Double Dagger 21.5 19.0 86 2 14 24.1 100.38 28   Mostly Cloudy
23:00 Legend Double Dagger 20.8 18.8 89 1 13 24.1 100.38 27   LegendNANA

Notes on Data Quality.

Legend

  • E = Estimated
  • M = Missing
  • NA = Not Available
  • ‡ = Partner data that is not subject to review by the National Climate Archives
Date modified: